Time,TemperatureF,DewpointF,PressureIn,WindDirection,WindDirectionDegrees,WindSpeedMPH,WindSpeedGustMPH,Humidity,HourlyPrecipIn,Conditions,Clouds,dailyrainin,SoftwareType,DateUTC
2013-01-14 00:00:00,27.3,21.7,30.04,West,281,0.0,0.0,79,0.00,-SN,,0.00,WeatherDisplay:10.37,2013-01-13 23:00:00,
2013-01-14 00:10:00,27.3,21.7,30.04,WNW,300,0.0,1.0,79,0.00,-SN,,0.00,WeatherDisplay:10.37,2013-01-13 23:10:00,
2013-01-14 00:20:00,27.3,21.7,30.04,WNW,300,1.0,1.0,79,0.00,-SN,,0.00,WeatherDisplay:10.37,2013-01-13 23:20:00,
2013-01-14 00:30:00,27.3,21.7,30.04,WNW,292,0.0,0.0,79,0.00,-SN,,0.00,WeatherDisplay:10.37,2013-01-13 23:30:00,
2013-01-14 00:41:00,27.3,21.7,30.04,WNW,292,0.0,0.0,79,0.00,-SN,,0.00,WeatherDisplay:10.37,2013-01-13 23:41:00,
2013-01-14 00:50:00,27.3,21.7,30.04,WNW,292,2.0,2.0,79,0.00,-SN,,0.00,WeatherDisplay:10.37,2013-01-13 23:50:00,
2013-01-14 01:00:00,27.5,22.1,30.04,West,279,2.0,2.0,80,0.00,OVC,,0.00,WeatherDisplay:10.37,2013-01-14 00:00:00,
2013-01-14 01:10:00,27.5,22.1,30.03,WNW,290,1.0,3.0,80,0.00,OVC,,0.00,WeatherDisplay:10.37,2013-01-14 00:10:00,
2013-01-14 01:20:00,27.5,22.1,30.03,WNW,292,1.0,2.0,80,0.00,OVC,,0.00,WeatherDisplay:10.37,2013-01-14 00:20:00,
2013-01-14 01:30:00,27.5,22.4,30.03,WNW,303,1.0,1.0,81,0.00,OVC,,0.00,WeatherDisplay:10.37,2013-01-14 00:30:00,
2013-01-14 01:40:00,27.7,22.6,30.03,WNW,292,1.0,3.0,81,0.00,OVC,,0.00,WeatherDisplay:10.37,2013-01-14 00:40:00,
2013-01-14 01:50:00,27.7,22.6,30.03,WNW,292,3.0,3.0,81,0.00,OVC,,0.00,WeatherDisplay:10.37,2013-01-14 00:50:00,
2013-01-14 02:00:00,27.7,22.6,30.03,West,264,3.0,3.0,81,0.00,OVC,,0.00,WeatherDisplay:10.37,2013-01-14 01:00:00,
2013-01-14 02:11:00,27.7,22.6,30.03,WNW,292,1.0,2.0,81,0.00,OVC,,0.00,WeatherDisplay:10.37,2013-01-14 01:11:00,
2013-01-14 02:20:00,27.7,22.6,30.03,NW,314,2.0,3.0,81,0.00,OVC,,0.00,WeatherDisplay:10.37,2013-01-14 01:20:00,
2013-01-14 02:30:00,27.7,22.6,30.03,WNW,292,1.0,1.0,81,0.00,OVC,,0.00,WeatherDisplay:10.37,2013-01-14 01:30:00,
2013-01-14 02:40:00,27.7,22.6,30.03,North,359,1.0,2.0,81,0.00,OVC,,0.00,WeatherDisplay:10.37,2013-01-14 01:40:00,
2013-01-14 02:50:00,27.7,22.6,30.03,NW,309,0.0,0.0,81,0.00,OVC,,0.00,WeatherDisplay:10.37,2013-01-14 01:50:00,
2013-01-14 03:00:00,27.7,22.6,30.03,NW,315,2.0,2.0,81,0.00,OVC,,0.00,WeatherDisplay:10.37,2013-01-14 02:00:00,
2013-01-14 03:10:00,27.7,22.6,30.03,WNW,301,2.0,3.0,81,0.00,OVC,,0.00,WeatherDisplay:10.37,2013-01-14 02:10:00,
2013-01-14 03:20:00,27.7,22.6,30.03,South,181,1.0,2.0,81,0.00,OVC,,0.00,WeatherDisplay:10.37,2013-01-14 02:20:00,
2013-01-14 03:30:00,27.7,22.6,30.03,NW,315,0.0,0.0,81,0.00,OVC,,0.00,WeatherDisplay:10.37,2013-01-14 02:30:00,
2013-01-14 03:40:00,27.5,22.4,30.02,WNW,292,3.0,3.0,81,0.00,OVC,,0.00,WeatherDisplay:10.37,2013-01-14 02:40:00,
2013-01-14 03:50:00,27.5,22.7,30.02,WNW,292,0.0,0.0,82,0.00,OVC,,0.00,WeatherDisplay:10.37,2013-01-14 02:50:00,
2013-01-14 04:00:00,27.5,22.7,30.02,WNW,293,2.0,2.0,82,0.00,OVC,,0.00,WeatherDisplay:10.37,2013-01-14 03:00:00,
2013-01-14 04:10:00,27.5,22.7,30.01,NW,305,1.0,2.0,82,0.00,OVC,,0.00,WeatherDisplay:10.37,2013-01-14 03:10:00,
2013-01-14 04:20:00,27.5,22.7,30.01,NW,315,2.0,2.0,82,0.00,OVC,,0.00,WeatherDisplay:10.37,2013-01-14 03:20:00,
2013-01-14 04:30:00,27.5,22.7,30.00,WNW,292,2.0,3.0,82,0.00,OVC,,0.00,WeatherDisplay:10.37,2013-01-14 03:30:00,
2013-01-14 04:40:00,27.5,22.7,30.00,WNW,292,2.0,2.0,82,0.00,OVC,,0.00,WeatherDisplay:10.37,2013-01-14 03:40:00,
2013-01-14 04:50:00,27.5,22.7,30.01,WNW,292,0.0,2.0,82,0.00,OVC,,0.00,WeatherDisplay:10.37,2013-01-14 03:50:00,
2013-01-14 05:00:00,27.5,22.7,30.00,NW,307,1.0,3.0,82,0.00,OVC,,0.00,WeatherDisplay:10.37,2013-01-14 04:00:00,
2013-01-14 05:20:00,27.7,23.2,30.00,SW,225,0.0,2.0,83,0.00,OVC,,0.00,WeatherDisplay:10.37,2013-01-14 04:20:00,
2013-01-14 05:30:00,27.5,23.0,30.00,NW,304,0.0,3.0,83,0.00,OVC,,0.00,WeatherDisplay:10.37,2013-01-14 04:30:00,
2013-01-14 05:41:00,27.7,23.2,30.00,WNW,296,0.0,0.0,83,0.00,OVC,,0.00,WeatherDisplay:10.37,2013-01-14 04:41:00,
2013-01-14 05:50:00,27.7,23.5,30.00,NW,312,0.0,1.0,84,0.00,OVC,,0.00,WeatherDisplay:10.37,2013-01-14 04:50:00,
2013-01-14 06:00:00,27.7,23.5,30.00,SSW,195,0.0,0.0,84,0.00,OVC,,0.00,WeatherDisplay:10.37,2013-01-14 05:00:00,
2013-01-14 06:10:00,27.7,23.5,30.00,WNW,292,1.0,1.0,84,0.00,OVC,,0.00,WeatherDisplay:10.37,2013-01-14 05:10:00,
2013-01-14 06:20:00,27.7,23.5,30.00,SSW,213,0.0,0.0,84,0.00,OVC,,0.00,WeatherDisplay:10.37,2013-01-14 05:20:00,
2013-01-14 06:30:00,27.7,23.5,29.99,WNW,292,3.0,4.0,84,0.00,OVC,,0.00,WeatherDisplay:10.37,2013-01-14 05:30:00,
2013-01-14 06:40:00,27.9,23.7,29.99,WNW,292,0.0,0.0,84,0.00,OVC,,0.00,WeatherDisplay:10.37,2013-01-14 05:40:00,
2013-01-14 06:50:00,27.9,23.7,29.99,WNW,292,1.0,2.0,84,0.00,OVC,,0.00,WeatherDisplay:10.37,2013-01-14 05:50:00,
2013-01-14 07:00:00,28.0,23.8,29.99,WNW,292,0.0,0.0,84,0.00,OVC,,0.00,WeatherDisplay:10.37,2013-01-14 06:00:00,
2013-01-14 07:10:00,28.0,24.1,29.99,NW,309,0.0,3.0,85,0.00,OVC,,0.00,WeatherDisplay:10.37,2013-01-14 06:10:00,
2013-01-14 07:20:00,28.0,23.8,29.99,WNW,292,2.0,2.0,84,0.00,OVC,,0.00,WeatherDisplay:10.37,2013-01-14 06:20:00,
2013-01-14 07:30:00,28.0,23.8,29.99,NW,312,2.0,2.0,84,0.00,OVC,,0.00,WeatherDisplay:10.37,2013-01-14 06:30:00,
2013-01-14 07:40:00,28.0,23.5,29.99,NW,322,2.0,2.0,83,0.00,OVC,,0.00,WeatherDisplay:10.37,2013-01-14 06:40:00,
2013-01-14 07:50:00,28.0,23.5,29.99,WNW,299,0.0,3.0,83,0.00,OVC,,0.00,WeatherDisplay:10.37,2013-01-14 06:50:00,
2013-01-14 08:00:00,28.2,23.7,29.99,WNW,292,0.0,1.0,83,0.00,OVC,,0.00,WeatherDisplay:10.37,2013-01-14 07:00:00,
2013-01-14 08:10:00,28.2,23.7,29.99,SW,236,0.0,0.0,83,0.00,OVC,,0.00,WeatherDisplay:10.37,2013-01-14 07:10:00,
2013-01-14 08:20:00,28.2,23.7,29.99,WSW,241,0.0,1.0,83,0.00,OVC,,0.00,WeatherDisplay:10.37,2013-01-14 07:20:00,
2013-01-14 08:30:00,28.4,23.9,29.99,WNW,292,1.0,2.0,83,0.00,OVC,,0.00,WeatherDisplay:10.37,2013-01-14 07:30:00,
2013-01-14 08:40:00,28.6,23.8,29.98,SW,231,1.0,1.0,82,0.00,OVC,,0.00,WeatherDisplay:10.37,2013-01-14 07:40:00,
2013-01-14 08:50:00,28.6,23.8,29.98,WNW,292,0.0,1.0,82,0.00,OVC,,0.00,WeatherDisplay:10.37,2013-01-14 07:50:00,
2013-01-14 09:10:00,28.6,23.8,29.97,WNW,292,0.0,0.0,82,0.00,OVC,,0.00,WeatherDisplay:10.37,2013-01-14 08:10:00,
2013-01-14 09:20:00,28.6,23.8,29.97,NW,306,2.0,2.0,82,0.00,OVC,,0.00,WeatherDisplay:10.37,2013-01-14 08:20:00,
2013-01-14 09:31:00,28.8,24.0,29.96,WNW,301,2.0,3.0,82,0.00,-SN,,0.00,WeatherDisplay:10.37,2013-01-14 08:31:00,
2013-01-14 09:40:00,28.8,24.0,29.97,NW,307,0.0,0.0,82,0.00,-SN,,0.00,WeatherDisplay:10.37,2013-01-14 08:40:00,
2013-01-14 09:50:00,28.9,24.1,29.97,WNW,292,1.0,1.0,82,0.00,-SN,,0.00,WeatherDisplay:10.37,2013-01-14 08:50:00,
2013-01-14 10:00:00,28.9,24.1,29.97,WNW,292,0.0,0.0,82,0.00,-SN,,0.00,WeatherDisplay:10.37,2013-01-14 09:00:00,
2013-01-14 10:10:00,28.9,24.4,29.97,NW,304,0.0,2.0,83,0.00,-SN,,0.00,WeatherDisplay:10.37,2013-01-14 09:10:00,
2013-01-14 10:21:00,28.9,24.7,29.97,South,177,0.0,0.0,84,0.00,-SN,,0.00,WeatherDisplay:10.37,2013-01-14 09:21:00,
2013-01-14 10:30:00,28.9,25.0,29.97,West,274,3.0,3.0,85,0.00,-SN,,0.00,WeatherDisplay:10.37,2013-01-14 09:30:00,
2013-01-14 10:40:00,28.9,25.6,29.97,WSW,247,0.0,0.0,87,0.00,-SN,,0.00,WeatherDisplay:10.37,2013-01-14 09:40:00,
2013-01-14 10:50:00,28.6,25.5,29.97,WNW,292,0.0,2.0,88,0.00,-SN,,0.00,WeatherDisplay:10.37,2013-01-14 09:50:00,
2013-01-14 11:00:00,28.6,25.8,29.96,WNW,292,0.0,0.0,89,0.00,-SN,,0.00,WeatherDisplay:10.37,2013-01-14 10:00:00,
2013-01-14 11:10:00,28.6,25.8,29.96,WNW,292,0.0,0.0,89,0.00,-SN,,0.00,WeatherDisplay:10.37,2013-01-14 10:10:00,
2013-01-14 11:20:00,28.8,25.9,29.95,WNW,292,0.0,0.0,89,0.00,-SN,,0.00,WeatherDisplay:10.37,2013-01-14 10:20:00,
2013-01-14 11:30:00,28.9,26.4,29.95,WNW,292,0.0,0.0,90,0.00,-SN,,0.00,WeatherDisplay:10.37,2013-01-14 10:30:00,
2013-01-14 11:40:00,28.6,26.0,29.95,WNW,292,0.0,0.0,90,0.00,OVC,,0.00,WeatherDisplay:10.37,2013-01-14 10:40:00,
2013-01-14 11:50:00,28.8,26.5,29.94,NW,315,1.0,1.0,91,0.00,OVC,,0.00,WeatherDisplay:10.37,2013-01-14 10:50:00,
2013-01-14 12:00:00,28.8,26.2,29.94,NW,304,1.0,1.0,90,0.00,OVC,,0.00,WeatherDisplay:10.37,2013-01-14 11:00:00,
2013-01-14 12:21:00,28.8,26.2,29.93,NW,315,0.0,0.0,90,0.00,OVC,,0.00,WeatherDisplay:10.37,2013-01-14 11:21:00,
2013-01-14 12:30:00,28.8,26.2,29.92,NW,315,0.0,0.0,90,0.00,-SN,,0.00,WeatherDisplay:10.37,2013-01-14 11:30:00,
2013-01-14 12:40:00,28.9,26.4,29.92,NW,315,0.0,0.0,90,0.00,-SN,,0.00,WeatherDisplay:10.37,2013-01-14 11:40:00,
2013-01-14 13:01:00,28.9,26.4,29.91,West,270,0.0,0.0,90,0.00,OVC,,0.00,WeatherDisplay:10.37,2013-01-14 12:01:00,
2013-01-14 13:10:00,28.9,26.4,29.91,West,270,0.0,0.0,90,0.00,OVC,,0.00,WeatherDisplay:10.37,2013-01-14 12:10:00,
2013-01-14 13:20:00,28.8,26.2,29.91,WNW,288,0.0,0.0,90,0.00,OVC,,0.00,WeatherDisplay:10.37,2013-01-14 12:20:00,
2013-01-14 13:31:00,28.9,26.1,29.91,SW,214,0.0,0.0,89,0.00,OVC,,0.00,WeatherDisplay:10.37,2013-01-14 12:31:00,
2013-01-14 13:40:00,29.3,26.5,29.91,SW,225,0.0,0.0,89,0.00,OVC,,0.00,WeatherDisplay:10.37,2013-01-14 12:40:00,
2013-01-14 14:01:00,29.3,26.5,29.90,SSE,148,0.0,0.0,89,0.00,-SN,,0.00,WeatherDisplay:10.37,2013-01-14 13:01:00,
2013-01-14 14:11:00,29.5,26.6,29.90,West,280,0.0,0.0,89,0.00,-SN,,0.00,WeatherDisplay:10.37,2013-01-14 13:11:00,
2013-01-14 14:21:00,29.5,26.6,29.90,West,270,0.0,0.0,89,0.00,-SN,,0.00,WeatherDisplay:10.37,2013-01-14 13:21:00,
2013-01-14 14:30:00,29.5,26.6,29.90,West,270,0.0,0.0,89,0.00,-SN,,0.00,WeatherDisplay:10.37,2013-01-14 13:30:00,
2013-01-14 14:41:00,29.7,26.8,29.90,SW,214,0.0,0.0,89,0.00,-SN,,0.00,WeatherDisplay:10.37,2013-01-14 13:41:00,
2013-01-14 14:51:00,29.5,26.6,29.90,WNW,287,0.0,0.0,89,0.00,-SN,,0.00,WeatherDisplay:10.37,2013-01-14 13:51:00,
2013-01-14 15:00:00,29.8,27.0,29.90,WNW,292,0.0,0.0,89,0.00,-SN,,0.00,WeatherDisplay:10.37,2013-01-14 14:00:00,
2013-01-14 15:10:00,29.5,26.4,29.90,SE,135,0.0,0.0,88,0.00,-SN,,0.00,WeatherDisplay:10.37,2013-01-14 14:10:00,
2013-01-14 15:21:00,29.8,27.0,29.89,SE,135,0.0,0.0,89,0.00,-SN,,0.00,WeatherDisplay:10.37,2013-01-14 14:21:00,
2013-01-14 15:30:00,29.8,27.0,29.89,SE,135,0.0,0.0,89,0.00,-SN,,0.00,WeatherDisplay:10.37,2013-01-14 14:30:00,
2013-01-14 15:40:00,29.8,26.4,29.89,SE,135,0.0,0.0,87,0.00,-SN,,0.00,WeatherDisplay:10.37,2013-01-14 14:40:00,
2013-01-14 15:51:00,29.5,26.1,29.89,SE,124,0.0,0.0,87,0.00,-SN,,0.00,WeatherDisplay:10.37,2013-01-14 14:51:00,
2013-01-14 16:01:00,29.1,25.7,29.89,SE,135,0.0,0.0,87,0.00,-SN,,0.00,WeatherDisplay:10.37,2013-01-14 15:01:00,
2013-01-14 16:10:00,28.9,25.6,29.90,SE,135,0.0,0.0,87,0.00,-SN,,0.00,WeatherDisplay:10.37,2013-01-14 15:10:00,
2013-01-14 16:30:00,28.8,25.9,29.90,SE,135,0.0,0.0,89,0.00,-SN,,0.00,WeatherDisplay:10.37,2013-01-14 15:30:00,
2013-01-14 16:40:00,28.8,25.9,29.90,South,180,0.0,0.0,89,0.00,BKN,,0.00,WeatherDisplay:10.37,2013-01-14 15:40:00,
2013-01-14 16:50:00,28.4,25.8,29.90,South,180,0.0,0.0,90,0.00,BKN,,0.00,WeatherDisplay:10.37,2013-01-14 15:50:00,
2013-01-14 17:00:00,28.4,25.8,29.90,West,270,0.0,0.0,90,0.00,BKN,,0.00,WeatherDisplay:10.37,2013-01-14 16:00:00,
2013-01-14 17:10:00,28.2,25.7,29.90,West,270,0.0,0.0,90,0.00,BKN,,0.00,WeatherDisplay:10.37,2013-01-14 16:10:00,
2013-01-14 17:20:00,28.2,25.7,29.90,West,270,0.0,0.0,90,0.00,BKN,,0.00,WeatherDisplay:10.37,2013-01-14 16:20:00,
2013-01-14 17:30:00,28.0,25.5,29.90,SE,135,0.0,0.0,90,0.00,BKN,,0.00,WeatherDisplay:10.37,2013-01-14 16:30:00,
2013-01-14 17:40:00,27.9,25.0,29.91,SE,135,0.0,0.0,89,0.00,BKN,,0.00,WeatherDisplay:10.37,2013-01-14 16:40:00,
2013-01-14 17:50:00,27.5,24.7,29.90,SE,135,0.0,0.0,89,0.00,BKN,,0.00,WeatherDisplay:10.37,2013-01-14 16:50:00,
2013-01-14 18:00:00,27.3,24.5,29.90,SE,135,0.0,0.0,89,0.00,BKN,,0.00,WeatherDisplay:10.37,2013-01-14 17:00:00,
2013-01-14 18:10:00,27.1,24.3,29.90,SE,135,0.0,0.0,89,0.00,BKN,,0.00,WeatherDisplay:10.37,2013-01-14 17:10:00,
2013-01-14 18:20:00,26.4,23.6,29.90,SE,135,0.0,0.0,89,0.00,BKN,,0.00,WeatherDisplay:10.37,2013-01-14 17:20:00,
2013-01-14 18:30:00,25.9,23.1,29.90,SE,135,0.0,0.0,89,0.00,OVC,,0.00,WeatherDisplay:10.37,2013-01-14 17:30:00,
2013-01-14 18:40:00,25.5,22.7,29.90,WSW,242,0.0,0.0,89,0.00,OVC,,0.00,WeatherDisplay:10.37,2013-01-14 17:40:00,
2013-01-14 18:51:00,25.0,22.2,29.90,WSW,248,0.0,0.0,89,0.00,OVC,,0.00,WeatherDisplay:10.37,2013-01-14 17:51:00,
2013-01-14 19:00:00,24.4,21.7,29.90,WSW,248,0.0,0.0,89,0.00,BKN,,0.00,WeatherDisplay:10.37,2013-01-14 18:00:00,
2013-01-14 19:10:00,24.1,21.3,29.91,WSW,248,0.0,0.0,89,0.00,BKN,,0.00,WeatherDisplay:10.37,2013-01-14 18:10:00,
2013-01-14 19:20:00,23.7,21.0,29.91,WSW,248,0.0,0.0,89,0.00,BKN,,0.00,WeatherDisplay:10.37,2013-01-14 18:20:00,
2013-01-14 19:30:00,23.2,20.4,29.91,WSW,248,0.0,0.0,89,0.00,BKN,,0.00,WeatherDisplay:10.37,2013-01-14 18:30:00,
2013-01-14 19:41:00,22.6,19.9,29.90,SSW,203,0.0,0.0,89,0.00,BKN,,0.00,WeatherDisplay:10.37,2013-01-14 18:41:00,
2013-01-14 19:50:00,22.6,19.9,29.90,SSE,158,0.0,0.0,89,0.00,SCT,,0.00,WeatherDisplay:10.37,2013-01-14 18:50:00,
2013-01-14 20:00:00,22.6,19.9,29.91,South,180,0.0,0.0,89,0.00,SCT,,0.00,WeatherDisplay:10.37,2013-01-14 19:00:00,
2013-01-14 20:10:00,22.6,19.9,29.91,SSW,213,0.0,0.0,89,0.00,SCT,,0.00,WeatherDisplay:10.37,2013-01-14 19:10:00,
2013-01-14 20:20:00,22.6,19.9,29.91,SE,135,0.0,0.0,89,0.00,SCT,,0.00,WeatherDisplay:10.37,2013-01-14 19:20:00,
2013-01-14 20:30:00,22.6,19.9,29.90,SE,135,0.0,0.0,89,0.00,SCT,,0.00,WeatherDisplay:10.37,2013-01-14 19:30:00,
2013-01-14 20:40:00,22.6,19.9,29.90,SE,135,0.0,0.0,89,0.00,SCT,,0.00,WeatherDisplay:10.37,2013-01-14 19:40:00,
2013-01-14 21:00:00,22.6,20.1,29.91,SE,135,0.0,0.0,90,0.00,SCT,,0.00,WeatherDisplay:10.37,2013-01-14 20:00:00,
2013-01-14 21:10:00,22.6,20.1,29.91,WNW,292,0.0,0.0,90,0.00,FEW,,0.00,WeatherDisplay:10.37,2013-01-14 20:10:00,
2013-01-14 21:20:00,22.8,20.3,29.91,WNW,292,0.0,0.0,90,0.00,FEW,,0.00,WeatherDisplay:10.37,2013-01-14 20:20:00,
2013-01-14 21:30:00,22.8,20.3,29.91,WNW,292,0.0,0.0,90,0.00,BKN,,0.00,WeatherDisplay:10.37,2013-01-14 20:30:00,
2013-01-14 21:40:00,22.8,20.3,29.91,WNW,292,0.0,0.0,90,0.00,BKN,,0.00,WeatherDisplay:10.37,2013-01-14 20:40:00,
2013-01-14 21:50:00,23.2,20.7,29.91,SW,225,0.0,0.0,90,0.00,BKN,,0.00,WeatherDisplay:10.37,2013-01-14 20:50:00,
2013-01-14 22:00:00,23.4,20.9,29.90,SSE,158,0.0,0.0,90,0.00,BKN,,0.00,WeatherDisplay:10.37,2013-01-14 21:00:00,
2013-01-14 22:10:00,23.5,21.0,29.90,SSE,158,0.0,0.0,90,0.00,BKN,,0.00,WeatherDisplay:10.37,2013-01-14 21:10:00,
2013-01-14 22:20:00,23.7,21.2,29.91,SSE,158,0.0,0.0,90,0.00,BKN,,0.00,WeatherDisplay:10.37,2013-01-14 21:20:00,
2013-01-14 22:30:00,23.9,21.4,29.91,SSE,158,0.0,0.0,90,0.00,BKN,,0.00,WeatherDisplay:10.37,2013-01-14 21:30:00,
2013-01-14 22:40:00,24.1,21.6,29.91,SSE,158,0.0,0.0,90,0.00,BKN,,0.00,WeatherDisplay:10.37,2013-01-14 21:40:00,
2013-01-14 22:50:00,24.4,22.2,29.91,South,191,0.0,0.0,91,0.00,BKN,,0.00,WeatherDisplay:10.37,2013-01-14 21:50:00,
2013-01-14 23:00:00,24.4,22.2,29.91,SW,225,0.0,0.0,91,0.00,BKN,,0.00,WeatherDisplay:10.37,2013-01-14 22:00:00,
2013-01-14 23:10:00,24.6,22.4,29.91,SW,225,0.0,0.0,91,0.00,BKN,,0.00,WeatherDisplay:10.37,2013-01-14 22:10:00,
2013-01-14 23:20:00,24.6,22.4,29.91,SSW,213,0.0,0.0,91,0.00,BKN,,0.00,WeatherDisplay:10.37,2013-01-14 22:20:00,
2013-01-14 23:30:00,25.0,22.7,29.91,SSW,202,0.0,0.0,91,0.00,BKN,,0.00,WeatherDisplay:10.37,2013-01-14 22:30:00,
2013-01-14 23:40:00,25.0,22.7,29.91,SSW,202,0.0,0.0,91,0.00,BKN,,0.00,WeatherDisplay:10.37,2013-01-14 22:40:00,
2013-01-14 23:50:00,25.2,22.9,29.91,SSW,202,0.0,0.0,91,0.00,BKN,,0.00,WeatherDisplay:10.37,2013-01-14 22:50:00,